TITAN 3C TRANSTAGE DEB, 43449

Orbit data source: Space-Track

TITAN 3C TRANSTAGE DEB, 43449 is space debris in GEO originally from a launch on Sun, 09 Feb 1969 UTC launched from the Air Force Eastern Test Range (AFETR). Debris objects in space refer to the collection of defunct objects orbiting the Earth. Examples of debris include non-operational satellites, rocket bodies, and fragments generated from explosions, collisions, or faulty payload assembly.

Not visible in the next 10 days
Identifier
43449, 1969-013J
Orbit
GEO
Last TLE update
2 days ago
Origin
Manufacturer
Martin Marietta
Mission
Spacecraft
Bus & Motor
Unknown
Mass
Unknown
Launch date (UTC)
1969-02-09 (56 years ago)
Launch vehicle
Unknown
Launch site
Air Force Eastern Test Range (AFETR)
Object type
Payload
Rocket body
Debris
Shape & HBR
Unknown
Radar Cross Section
RCS unknown

Expand to show TLE details & history

TLE from 2 days ago
0 TITAN 3C TRANSTAGE DEB
1 43449U 69013J   25161.82718663 -.00000194  00000-0  00000+0 0  9993
2 43449   0.5004  54.1570 0146871  80.4618 226.5993  0.96591603 25250
Epoch: 2025-06-10T19:51Z
TLE epoch observation values (Epoch: 2025-06-10T19:51:08.924Z)
Latitude
-0.39501°
Longitude
162.79535°
Altitude
37,288.298 km
Speed
3.006 km/s
True Right ascension
00h 00m 00s
True Declination
0° 23' 41"
Sunlit
Object was in daylight at epoch
Visualization orbit readout
Latitude
-0.40197°
Longitude
85.35138°
Altitude
37,386.749 km
Speed
2.999 km/s
Apparent Right ascension
18h 27m 57s
Apparent Declination
-5° 26' 09"
Sunlit
Object is in daylight
Visualization observer readout
Local Sidereal Time
02:27:46
Azimuth
285.935° WNW
Elevation
-26.232°
Doppler factor
1
Orbital elements
Apogee altitude
37,486.873 km
Perigee altitude
36,217.024 km
Semi-major axis
43,230.086 km
Eccentricity
0.01469
Inclination
0.5004°
RAAN
54.157°
Arg. of periapsis
80.4618°
True anomaly
Unknown
Mean anomaly
226.5993°
Eccentric anomaly
Unknown
Mean motion
0.24147 °/min
Orbital period
1,490.87 mins
BSTAR
0
Loading historical data...
43449 neighbors
Loading maneuver chart data...
Loading SW <> Apogee altitude chart data...

TITAN 3C TRANSTAGE DEB Visibility

Observer location: undefined°, undefined°

TITAN 3C TRANSTAGE DEB is likely not visible in the next few days
Span
Click to sort rows by Start time (UTC) header in descending order
Start Az.
Max El. time (UTC)
Max El. Az.
Max El.
End time (UTC)
End Az.
|